| time (UTC) | temp F | wind direction | speed MPH | gust MPH | rain 1hr in | rain 24hr in | rain mn in | humidity % | barometer mb |
| 20260505085703 | 65 | 82 | 2.0 | 8.0 | 0.00 | 0.00 | 0.00 | 62 | 1006.5 |
| 20260505085203 | 65 | 85 | 1.0 | 3.0 | 0.00 | 0.00 | 0.00 | 62 | 1006.4 |
| 20260505084702 | 65 | 83 | 0.0 | 5.0 | 0.00 | 0.00 | 0.00 | 62 | 1006.4 |
| 20260505084204 | 65 | 77 | 0.0 | 5.0 | 0.00 | 0.00 | 0.00 | 62 | 1006.3 |
| 20260505083203 | 65 | 69 | 1.0 | 5.0 | 0.00 | 0.00 | 0.00 | 62 | 1006.1 |
| 20260505082703 | 65 | 77 | 0.0 | 1.0 | 0.00 | 0.00 | 0.00 | 62 | 1006.1 |
| 20260505082203 | 65 | 74 | 1.0 | 5.0 | 0.00 | 0.00 | 0.00 | 62 | 1006.0 |
| 20260505081704 | 65 | 73 | 0.0 | 5.0 | 0.00 | 0.00 | 0.00 | 62 | 1005.9 |
| 20260505081204 | 65 | 77 | 1.0 | 3.0 | 0.00 | 0.00 | 0.00 | 62 | 1005.9 |
| 20260505080704 | 65 | 77 | 1.0 | 5.0 | 0.00 | 0.00 | 0.00 | 62 | 1005.9 |
| 20260505080203 | 65 | 79 | 0.0 | 3.0 | 0.00 | 0.00 | 0.00 | 62 | 1005.9 |
| 20260505075703 | 65 | 78 | 1.0 | 3.0 | 0.00 | 0.00 | 0.00 | 62 | 1006.0 |
| 20260505075203 | 65 | 77 | 2.0 | 8.0 | 0.00 | 0.00 | 0.00 | 62 | 1006.1 |
| 20260505073703 | 65 | 76 | 1.0 | 7.0 | 0.00 | 0.00 | 0.00 | 61 | 1005.9 |
| 20260505073203 | 65 | 71 | 1.0 | 7.0 | 0.00 | 0.00 | 0.00 | 62 | 1005.9 |
| 20260505072703 | 65 | 66 | 1.0 | 6.0 | 0.00 | 0.00 | 0.00 | 62 | 1005.7 |
| 20260505072203 | 65 | 73 | 1.0 | 6.0 | 0.00 | 0.00 | 0.00 | 61 | 1005.6 |
| 20260505071703 | 65 | 74 | 1.0 | 5.0 | 0.00 | 0.00 | 0.00 | 61 | 1005.6 |
| 20260505070703 | 65 | 79 | 1.0 | 6.0 | 0.00 | 0.00 | 0.00 | 61 | 1005.7 |
| 20260505070204 | 66 | 77 | 1.0 | 5.0 | 0.00 | 0.00 | 0.00 | 61 | 1005.7 |
| 20260505065704 | 66 | 71 | 0.0 | 3.0 | 0.00 | 0.00 | 0.00 | 61 | 1005.6 |
| 20260505065203 | 66 | 72 | 0.0 | 3.0 | 0.00 | 0.00 | 0.00 | 61 | 1005.5 |
| 20260505064704 | 66 | 66 | 1.0 | 9.0 | 0.00 | 0.00 | 0.00 | 61 | 1005.5 |
| 20260505064203 | 66 | 72 | 2.0 | 5.0 | 0.00 | 0.00 | 0.00 | 61 | 1005.4 |
| 20260505063703 | 66 | 65 | 1.0 | 5.0 | 0.00 | 0.00 | 0.00 | 61 | 1005.5 |
| 20260505063203 | 66 | 65 | 1.0 | 6.0 | 0.00 | 0.00 | 0.00 | 61 | 1005.5 |
| 20260505062704 | 66 | 74 | 1.0 | 3.0 | 0.00 | 0.00 | 0.00 | 61 | 1005.6 |
| 20260505062203 | 66 | 90 | 3.0 | 7.0 | 0.00 | 0.00 | 0.00 | 61 | 1005.6 |
| 20260505061704 | 66 | 65 | 1.0 | 3.0 | 0.00 | 0.00 | 0.00 | 60 | 1005.6 |
| 20260505061204 | 66 | 74 | 1.0 | 5.0 | 0.00 | 0.00 | 0.00 | 60 | 1005.5 |
| 20260505060703 | 67 | 73 | 1.0 | 5.0 | 0.00 | 0.00 | 0.00 | 60 | 1005.4 |
| 20260505060203 | 67 | 58 | 1.0 | 3.0 | 0.00 | 0.00 | 0.00 | 60 | 1005.3 |
| 20260505055704 | 67 | 69 | 0.0 | 2.0 | 0.00 | 0.00 | 0.00 | 60 | 1005.2 |
| 20260505054703 | 67 | 62 | 1.0 | 6.0 | 0.00 | 0.00 | 0.00 | 59 | 1005.1 |
| 20260505054204 | 68 | 58 | 1.0 | 6.0 | 0.00 | 0.00 | 0.00 | 59 | 1005.0 |
| 20260505053703 | 68 | 66 | 2.0 | 8.0 | 0.00 | 0.00 | 0.00 | 58 | 1004.9 |
| 20260505052703 | 68 | 57 | 3.0 | 10.0 | 0.00 | 0.00 | 0.00 | 58 | 1004.9 |
| 20260505052203 | 68 | 58 | 1.0 | 7.0 | 0.00 | 0.00 | 0.00 | 58 | 1004.8 |
| 20260505051703 | 68 | 54 | 2.0 | 7.0 | 0.00 | 0.00 | 0.00 | 58 | 1004.8 |
| 20260505050703 | 68 | 59 | 2.0 | 7.0 | 0.00 | 0.00 | 0.00 | 58 | 1005.1 |
| 20260505050203 | 68 | 64 | 2.0 | 8.0 | 0.00 | 0.00 | 0.00 | 58 | 1005.2 |
| 20260505040703 | 69 | 48 | 0.0 | 7.0 | 0.00 | 0.00 | 0.00 | 58 | 1005.6 |
| 20260505040203 | 69 | 52 | 1.0 | 5.0 | 0.00 | 0.00 | 0.00 | 59 | 1005.7 |
| 20260505035204 | 69 | 40 | 1.0 | 6.0 | 0.00 | 0.00 | 0.00 | 59 | 1005.7 |
| 20260505034204 | 69 | 52 | 1.0 | 5.0 | 0.00 | 0.00 | 0.00 | 59 | 1005.7 |
| 20260505033703 | 69 | 52 | 2.0 | 6.0 | 0.00 | 0.00 | 0.00 | 58 | 1005.6 |
| 20260505033203 | 69 | 56 | 1.0 | 7.0 | 0.00 | 0.00 | 0.00 | 58 | 1005.6 |
| 20260505032703 | 69 | 54 | 2.0 | 7.0 | 0.00 | 0.00 | 0.00 | 58 | 1005.6 |
| 20260505032203 | 69 | 56 | 1.0 | 6.0 | 0.00 | 0.00 | 0.00 | 59 | 1005.6 |
| 20260505031703 | 69 | 55 | 2.0 | 7.0 | 0.00 | 0.00 | 0.00 | 59 | 1005.6 |
| 20260505030205 | 69 | 51 | 2.0 | 8.0 | 0.00 | 0.00 | 0.00 | 59 | 1005.5 |
| 20260505025703 | 69 | 55 | 1.0 | 5.0 | 0.00 | 0.00 | 0.00 | 59 | 1005.4 |
| 20260505024703 | 69 | 51 | 1.0 | 5.0 | 0.00 | 0.00 | 0.00 | 59 | 1005.2 |
| 20260505024203 | 69 | 51 | 1.0 | 7.0 | 0.00 | 0.00 | 0.00 | 59 | 1005.2 |
| 20260505023704 | 69 | 53 | 1.0 | 7.0 | 0.00 | 0.00 | 0.00 | 59 | 1005.1 |
| 20260505023203 | 69 | 50 | 1.0 | 5.0 | 0.00 | 0.00 | 0.00 | 59 | 1005.1 |
| 20260505022704 | 69 | 45 | 0.0 | 5.0 | 0.00 | 0.00 | 0.00 | 59 | 1005.0 |
| 20260505022204 | 69 | 49 | 1.0 | 7.0 | 0.00 | 0.00 | 0.00 | 59 | 1005.0 |
| 20260505020703 | 70 | 38 | 0.0 | 2.0 | 0.00 | 0.00 | 0.00 | 58 | 1004.8 |
| 20260505020203 | 70 | 42 | 0.0 | 2.0 | 0.00 | 0.00 | 0.00 | 58 | 1004.7 |
| 20260505015703 | 70 | 39 | 0.0 | 3.0 | 0.00 | 0.00 | 0.00 | 58 | 1004.7 |
| 20260505015203 | 70 | 40 | 0.0 | 0.0 | 0.00 | 0.00 | 0.00 | 57 | 1004.6 |
| 20260505014704 | 70 | 33 | 0.0 | 2.0 | 0.00 | 0.00 | 0.00 | 57 | 1004.6 |
| 20260505013704 | 71 | 42 | 0.0 | 3.0 | 0.00 | 0.00 | 0.00 | 57 | 1004.5 |
| 20260505013203 | 71 | 41 | 0.0 | 3.0 | 0.00 | 0.00 | 0.00 | 56 | 1004.5 |
| 20260505012704 | 71 | 23 | 1.0 | 6.0 | 0.00 | 0.00 | 0.00 | 56 | 1004.5 |
| 20260505012204 | 71 | 43 | 0.0 | 1.0 | 0.00 | 0.00 | 0.00 | 56 | 1004.4 |
| 20260505011204 | 71 | 42 | 0.0 | 2.0 | 0.00 | 0.00 | 0.00 | 55 | 1004.4 |
| 20260505010703 | 71 | 29 | 0.0 | 1.0 | 0.00 | 0.00 | 0.00 | 55 | 1004.3 |
| 20260505010203 | 72 | 38 | 1.0 | 6.0 | 0.00 | 0.00 | 0.00 | 54 | 1004.4 |
| 20260505005204 | 72 | 31 | 0.0 | 2.0 | 0.00 | 0.00 | 0.00 | 53 | 1004.4 |
| 20260505004704 | 72 | 30 | 0.0 | 3.0 | 0.00 | 0.00 | 0.00 | 53 | 1004.3 |
| 20260505004204 | 73 | 32 | 0.0 | 3.0 | 0.00 | 0.00 | 0.00 | 52 | 1004.3 |
| 20260505003704 | 73 | 31 | 0.0 | 5.0 | 0.00 | 0.00 | 0.00 | 52 | 1004.3 |
| 20260505003203 | 73 | 27 | 1.0 | 6.0 | 0.00 | 0.00 | 0.00 | 52 | 1004.3 |
| 20260505002703 | 73 | 31 | 0.0 | 1.0 | 0.00 | 0.00 | 0.00 | 51 | 1004.3 |
| 20260505002204 | 73 | 26 | 1.0 | 6.0 | 0.00 | 0.00 | 0.00 | 50 | 1004.4 |
| 20260505001703 | 74 | 23 | 1.0 | 3.0 | 0.00 | 0.00 | 0.00 | 50 | 1004.4 |
| 20260505001204 | 74 | 28 | 1.0 | 5.0 | 0.00 | 0.00 | 0.00 | 50 | 1004.4 |
| 20260505000703 | 74 | 24 | 1.0 | 3.0 | 0.00 | 0.00 | 0.00 | 49 | 1004.5 |
| 20260505000204 | 74 | 24 | 1.0 | 6.0 | 0.00 | 0.00 | 0.00 | 49 | 1004.6 |
| 20260504234704 | 74 | 24 | 6.0 | 10.0 | 0.00 | 0.00 | 0.00 | 48 | 1004.7 |
| 20260504233703 | 75 | 33 | 3.0 | 12.0 | 0.00 | 0.00 | 0.00 | 47 | 1004.9 |
| 20260504232703 | 75 | 147 | 6.0 | 20.0 | 0.00 | 0.00 | 0.00 | 45 | 1005.0 |
| 20260504232204 | 76 | 164 | 7.0 | 20.0 | 0.00 | 0.00 | 0.00 | 45 | 1005.0 |
| 20260504231704 | 76 | 205 | 5.0 | 20.0 | 0.00 | 0.00 | 0.00 | 46 | 1004.9 |
| 20260504231203 | 76 | 188 | 5.0 | 10.0 | 0.00 | 0.00 | 0.00 | 46 | 1005.0 |
| 20260504230204 | 76 | 170 | 5.0 | 12.0 | 0.00 | 0.00 | 0.00 | 46 | 1005.0 |
| 20260504225703 | 76 | 200 | 6.0 | 12.0 | 0.00 | 0.00 | 0.00 | 46 | 1005.1 |
| 20260504225204 | 76 | 187 | 6.0 | 13.0 | 0.00 | 0.00 | 0.00 | 46 | 1005.1 |
| 20260504224703 | 76 | 132 | 5.0 | 13.0 | 0.00 | 0.00 | 0.00 | 46 | 1005.1 |
| 20260504224203 | 76 | 28 | 7.0 | 14.0 | 0.00 | 0.00 | 0.00 | 47 | 1005.2 |
| 20260504223703 | 76 | 220 | 4.0 | 12.0 | 0.00 | 0.00 | 0.00 | 50 | 1005.2 |
| 20260504223203 | 76 | 148 | 1.0 | 5.0 | 0.00 | 0.00 | 0.00 | 52 | 1005.2 |
| 20260504222203 | 76 | 90 | 1.0 | 6.0 | 0.00 | 0.00 | 0.00 | 51 | 1005.3 |
| 20260504221704 | 76 | 153 | 1.0 | 6.0 | 0.00 | 0.00 | 0.00 | 51 | 1005.3 |
| 20260504221203 | 76 | 132 | 1.0 | 6.0 | 0.00 | 0.00 | 0.00 | 52 | 1005.3 |
| 20260504220703 | 76 | 111 | 1.0 | 3.0 | 0.00 | 0.00 | 0.00 | 50 | 1005.1 |
| 20260504215704 | 76 | 109 | 1.0 | 3.0 | 0.00 | 0.00 | 0.00 | 49 | 1005.5 |
| 20260504215203 | 76 | 134 | 3.0 | 8.0 | 0.00 | 0.00 | 0.00 | 47 | 1005.6 |
| 20260504214703 | 76 | 138 | 1.0 | 3.0 | 0.00 | 0.00 | 0.00 | 49 | 1005.7 |
| 20260504214203 | 76 | 45 | 3.0 | 8.0 | 0.00 | 0.00 | 0.00 | 48 | 1005.9 |
| 20260504213203 | 76 | 103 | 2.0 | 7.0 | 0.00 | 0.00 | 0.00 | 47 | 1005.8 |
| 20260504212703 | 76 | 138 | 3.0 | 7.0 | 0.00 | 0.00 | 0.00 | 47 | 1006.0 |
| 20260504212203 | 76 | 223 | 4.0 | 8.0 | 0.00 | 0.00 | 0.00 | 47 | 1006.1 |
| 20260504211703 | 76 | 164 | 3.0 | 9.0 | 0.00 | 0.00 | 0.00 | 47 | 1006.0 |
| 20260504211205 | 76 | 184 | 3.0 | 9.0 | 0.00 | 0.00 | 0.00 | 49 | 1006.1 |
| 20260504210703 | 76 | 147 | 5.0 | 12.0 | 0.00 | 0.00 | 0.00 | 49 | 1006.2 |
| 20260504210203 | 76 | 245 | 3.0 | 7.0 | 0.00 | 0.00 | 0.00 | 50 | 1006.2 |
| 20260504205705 | 76 | 210 | 3.0 | 8.0 | 0.00 | 0.00 | 0.00 | 50 | 1006.2 |
| 20260504205204 | 76 | 221 | 5.0 | 9.0 | 0.00 | 0.00 | 0.00 | 50 | 1006.3 |
| 20260504204204 | 75 | 175 | 3.0 | 7.0 | 0.00 | 0.00 | 0.00 | 50 | 1006.4 |
| 20260504203703 | 75 | 190 | 5.0 | 14.0 | 0.00 | 0.00 | 0.00 | 50 | 1006.6 |
| 20260504203203 | 75 | 203 | 5.0 | 12.0 | 0.00 | 0.00 | 0.00 | 51 | 1006.7 |
| 20260504202704 | 75 | 203 | 5.0 | 8.0 | 0.00 | 0.00 | 0.00 | 51 | 1006.7 |
| 20260504202203 | 75 | 221 | 2.0 | 9.0 | 0.00 | 0.00 | 0.00 | 51 | 1006.7 |
| 20260504201703 | 75 | 216 | 3.0 | 10.0 | 0.00 | 0.00 | 0.00 | 52 | 1006.8 |
| 20260504201204 | 74 | 239 | 2.0 | 10.0 | 0.00 | 0.00 | 0.00 | 52 | 1007.0 |
| 20260504200703 | 74 | 226 | 5.0 | 12.0 | 0.00 | 0.00 | 0.00 | 52 | 1006.9 |
| 20260504200203 | 74 | 203 | 2.0 | 6.0 | 0.00 | 0.00 | 0.00 | 55 | 1007.0 |
| 20260504195704 | 73 | 220 | 5.0 | 12.0 | 0.00 | 0.00 | 0.00 | 53 | 1006.9 |
| 20260504195203 | 73 | 204 | 5.0 | 12.0 | 0.00 | 0.00 | 0.00 | 54 | 1007.1 |
| 20260504194203 | 72 | 200 | 2.0 | 8.0 | 0.00 | 0.00 | 0.00 | 57 | 1007.3 |
| 20260504193704 | 72 | 212 | 2.0 | 8.0 | 0.00 | 0.00 | 0.00 | 59 | 1007.4 |
| 20260504192203 | 71 | 175 | 2.0 | 5.0 | 0.00 | 0.00 | 0.00 | 60 | 1007.7 |
| 20260504191704 | 71 | 236 | 3.0 | 6.0 | 0.00 | 0.00 | 0.00 | 60 | 1007.7 |
| 20260504191204 | 70 | 225 | 2.0 | 6.0 | 0.00 | 0.00 | 0.00 | 61 | 1008.1 |
| 20260504190205 | 70 | 210 | 2.0 | 7.0 | 0.00 | 0.00 | 0.00 | 61 | 1008.1 |
| 20260504185704 | 69 | 177 | 1.0 | 6.0 | 0.00 | 0.00 | 0.00 | 62 | 1008.2 |
| 20260504184705 | 69 | 209 | 2.0 | 8.0 | 0.00 | 0.00 | 0.00 | 61 | 1008.3 |
| 20260504183703 | 70 | 213 | 2.0 | 8.0 | 0.00 | 0.00 | 0.00 | 60 | 1008.3 |
| 20260504183204 | 70 | 211 | 5.0 | 12.0 | 0.00 | 0.00 | 0.00 | 59 | 1008.2 |
| 20260504182704 | 70 | 217 | 4.0 | 12.0 | 0.00 | 0.00 | 0.00 | 59 | 1008.2 |
| 20260504182204 | 70 | 189 | 5.0 | 9.0 | 0.00 | 0.00 | 0.00 | 59 | 1008.1 |
| 20260504181204 | 70 | 209 | 3.0 | 7.0 | 0.00 | 0.00 | 0.00 | 58 | 1007.9 |
| 20260504180703 | 70 | 200 | 3.0 | 8.0 | 0.00 | 0.00 | 0.00 | 58 | 1007.8 |
| 20260504174704 | 70 | 207 | 6.0 | 13.0 | 0.00 | 0.00 | 0.00 | 57 | 1007.4 |
| 20260504174203 | 70 | 212 | 6.0 | 14.0 | 0.00 | 0.00 | 0.00 | 57 | 1007.4 |
| 20260504173703 | 70 | 214 | 7.0 | 14.0 | 0.00 | 0.00 | 0.00 | 58 | 1007.4 |
| 20260504173203 | 70 | 214 | 5.0 | 13.0 | 0.00 | 0.00 | 0.00 | 60 | 1007.5 |
| 20260504172703 | 69 | 207 | 3.0 | 9.0 | 0.00 | 0.00 | 0.00 | 60 | 1007.7 |
| 20260504172204 | 69 | 218 | 4.0 | 7.0 | 0.00 | 0.00 | 0.00 | 61 | 1007.6 |
| 20260504171704 | 68 | 216 | 3.0 | 9.0 | 0.00 | 0.00 | 0.00 | 62 | 1007.6 |
| 20260504171204 | 68 | 199 | 1.0 | 2.0 | 0.00 | 0.00 | 0.00 | 62 | 1007.1 |
| 20260504170204 | 68 | 163 | 2.0 | 9.0 | 0.00 | 0.00 | 0.00 | 61 | 1007.4 |
| 20260504160204 | 67 | 13 | 1.0 | 3.0 | 0.00 | 0.00 | 0.00 | 61 | 1008.3 |
| 20260504150705 | 63 | 174 | 1.0 | 3.0 | 0.00 | 0.00 | 0.00 | 65 | 1008.5 |
| 20260504150203 | 63 | 192 | 1.0 | 5.0 | 0.00 | 0.00 | 0.00 | 64 | 1008.6 |
| 20260504141205 | 61 | 211 | 1.0 | 7.0 | 0.00 | 0.00 | 0.00 | 66 | 1008.6 |
| 20260504140704 | 60 | 246 | 1.0 | 7.0 | 0.00 | 0.00 | 0.00 | 68 | 1008.7 |
| 20260504140203 | 60 | 190 | 1.0 | 6.0 | 0.00 | 0.00 | 0.00 | 67 | 1008.7 |
| 20260504130205 | 56 | 84 | 1.0 | 3.0 | 0.00 | 0.00 | 0.00 | 70 | 1009.1 |
| 20260504120203 | 54 | 95 | 2.0 | 6.0 | 0.00 | 0.00 | 0.00 | 70 | 1009.2 |
| 20260504110204 | 52 | 117 | 1.0 | 5.0 | 0.00 | 0.00 | 0.00 | 69 | 1008.9 |